Location: Ay?beleni
(36.6500°N, 30.3000°E)
Time: 03:36:58
(UTC+00:00)

Genesis I - Pass Details

Date: 16 October 2021
Orbit: 469 x 548 km, 64.5° (Epoch: 08 December)

Event Time Altitude Azimuth Distance (km) Brightness Sun altitude
Rises 15:58:17 0° 341° (NNW) 2,719 7.0 -8.2°
Reaches altitude 10° 16:00:48 10° 355° (N) 1,825 6.0 -8.7°
Maximum altitude 16:04:15 25° 52° (NE) 1,117 4.4 -9.4°
Enters shadow 16:07:14 12° 105° (ESE) 1,673 5.2 -10.0°
